Hourly Data Report for October 01, 2014

All times are specified in Local Standard Time (LST). Add 1 hour to adjust for Daylight Saving Time where and when it is observed.

OTTAWA INTL A
ONTARIO

45°19'00.000" N
75°40'00.000" W
114.90 m
6106001
71628
YOW

Download Data

Hourly Data (October 2014)
Hourly Data Report for October 1, 2014
Temp Definition
°C
Dew Point Temp Definition
°C
Rel Hum Definition
%
Wind Dir Definition
10's deg

Wind Spd Definition
km/h
Visibility Definition
km
Stn Press Definition
kPa
Hmdx Definition


Wind Chill Definition


Weather Definition


TIME
00:00 Legend Double Dagger 11.1 10.3 95 5 14 24.1 100.50     LegendNANA
01:00 Legend Double Dagger 11.4 10.3 93 6 14 16.1 100.53     Cloudy
02:00 Legend Double Dagger 11.3 10.4 94 7 12 16.1 100.52     LegendNANA
03:00 Legend Double Dagger 11.1 10.3 95 4 8 16.1 100.53     LegendNANA
04:00 Legend Double Dagger 10.9 10.1 95 4 10 16.1 100.55     Cloudy
05:00 Legend Double Dagger 11.1 10.3 95 7 9 16.1 100.59     LegendNANA
06:00 Legend Double Dagger 11.4 10.5 94 8 11 16.1 100.66     LegendNANA
07:00 Legend Double Dagger 11.7 10.5 92 8 12 16.1 100.72     Cloudy
08:00 Legend Double Dagger 12.3 10.7 90 7 12 16.1 100.76     LegendNANA
09:00 Legend Double Dagger 13.0 10.7 86 8 13 24.1 100.80     LegendNANA
10:00 Legend Double Dagger 13.9 11.3 84 6 13 24.1 100.78     Cloudy
11:00 Legend Double Dagger 15.7 11.3 75 5 14 24.1 100.74     LegendNANA
12:00 Legend Double Dagger 17.5 12.3 71 9 6 24.1 100.68     LegendNANA
13:00 Legend Double Dagger 18.6 12.0 65 4 13 24.1 100.63     Mainly Clear
14:00 Legend Double Dagger 19.4 12.0 62 5 17 24.1 100.60     LegendNANA
15:00 Legend Double Dagger 19.4 12.5 64 6 12 24.1 100.59     LegendNANA
16:00 Legend Double Dagger 19.0 12.1 64 5 13 24.1 100.58     Mainly Clear
17:00 Legend Double Dagger 17.8 12.1 69 5 15 24.1 100.61     LegendNANA
18:00 Legend Double Dagger 15.4 11.8 79 6 11 24.1 100.64     LegendNANA
19:00 Legend Double Dagger 14.6 11.8 83 9 12 24.1 100.69     Clear
20:00 Legend Double Dagger 13.3 11.4 88 7 13 24.1 100.73     LegendNANA
21:00 Legend Double Dagger 12.3 11.1 92 7 12 24.1 100.75     LegendNANA
22:00 Legend Double Dagger 11.3 10.5 95 6 11 12.9 100.74     Clear
23:00 Legend Double Dagger 11.4 10.0 91 7 14 12.9 100.71     LegendNANA

Notes on Data Quality.

Legend

  • E = Estimated
  • M = Missing
  • NA = Not Available
  • ‡ = Partner data that is not subject to review by the National Climate Archives
Date modified: